This is the latest recevied weather packets stored in our database for station/object LU3HGB-WX. If no packets are shown the sender has not sent any weather packets the latest 10 day(s).
| Time | Temp. | Humidity | Pressure | Rain* | Wind** | Luminosity | Snow |
|---|---|---|---|---|---|---|---|
| 1777909660 | 18.89° C | 48% | 1012 hPa | 0 mm | - | 704 W/m² | - |
| 1777909360 | 18.89° C | 51% | 1012 hPa | 0 mm | - | 701 W/m² | - |
| 1777909060 | 18.89° C | 52% | 1012 hPa | 0 mm | - | 697 W/m² | - |
| 1777908760 | 18.89° C | 51% | 1012 hPa | 0 mm | - | 691 W/m² | - |
| 1777908459 | 18.33° C | 53% | 1012 hPa | 0 mm | - | 684 W/m² | - |
| 1777908159 | 18.33° C | 48% | 1012 hPa | 0 mm | - | 679 W/m² | - |
| 1777907860 | 18.33° C | 50% | 1012 hPa | 0 mm | - | 673 W/m² | - |
| 1777907560 | 18.33° C | 52% | 1012 hPa | 0 mm | - | 665 W/m² | - |
| 1777907260 | 17.78° C | 51% | 1012 hPa | 0 mm | - | 655 W/m² | - |
| 1777906960 | 17.78° C | 52% | 1012 hPa | 0 mm | - | 646 W/m² | - |
| 1777906660 | 17.22° C | 53% | 1012 hPa | 0 mm | - | 639 W/m² | - |
| 1777906360 | 17.22° C | 55% | 1012 hPa | 0 mm | - | 631 W/m² | - |
| 1777906060 | 16.67° C | 55% | 1012 hPa | 0 mm | - | 618 W/m² | - |
| 1777905761 | 16.67° C | 53% | 1012 hPa | 0 mm | - | 610 W/m² | - |
| 1777905460 | 16.11° C | 53% | 1012 hPa | 0 mm | - | 611 W/m² | - |
| 1777905160 | 16.11° C | 55% | 1012 hPa | 0 mm | - | 587 W/m² | - |
| 1777904860 | 16.11° C | 54% | 1012 hPa | 0 mm | - | 574 W/m² | - |
| 1777904560 | 16.11° C | 54% | 1012 hPa | 0 mm | - | 564 W/m² | - |
| 1777904259 | 16.11° C | 56% | 1012 hPa | 0 mm | - | 550 W/m² | - |
| 1777903960 | 16.11° C | 53% | 1012 hPa | 0 mm | - | 538 W/m² | - |
| 1777903661 | 16.11° C | 55% | 1012 hPa | 0 mm | - | 531 W/m² | - |
| 1777903360 | 16.11° C | 58% | 1012 hPa | 0 mm | - | 512 W/m² | - |
| 1777903060 | 15.56° C | 60% | 1012 hPa | 0 mm | - | 496 W/m² | - |
| 1777902760 | 15.56° C | 64% | 1012 hPa | 0 mm | - | 475 W/m² | - |
| 1777902461 | 15° C | 67% | 1012 hPa | 0 mm | - | 460 W/m² | - |
* Rain latest hour (hover to see other rain measurements)
** Current wind speed in m/s (hover to see current wind gust speed)